Theta_e
318 319 321 320 314 312 316 317 318 320 321 323 327 328 327 329 338 342 341 340 345 340 336 334 335 332 331 330 327 324 324 323 324 327 330 330 331 329 329 330 331 331 332 332 333 334 333 333 332
318 320 320 320 313 314 314 315 320 321 322 324 329 328 328 329 332 338 341 340 347 344 340 332 333 332 332 330 327 325 324 324 324 326 328 329 329 329 329 329 330 330 331 331 333 333 332 332 332
320 321 319 312 310 315 316 318 318 320 322 323 322 326 326 328 331 336 340 341 346 347 345 336 332 333 332 330 327 326 326 325 325 326 328 329 330 329 328 328 329 329 330 331 331 332 333 331 331
321 321 319 315 319 317 316 318 319 320 322 324 325 323 327 328 327 336 341 342 343 347 344 334 332 332 332 330 327 326 326 325 325 327 328 329 330 329 329 329 330 330 330 331 331 332 332 331 329
321 320 314 317 319 318 318 319 320 320 322 323 324 322 322 322 321 322 330 342 344 346 345 342 334 333 333 330 328 326 326 325 325 326 329 330 330 330 329 329 330 330 330 330 331 331 331 330 329
319 317 315 317 318 318 321 322 322 322 323 323 322 322 321 320 321 322 323 323 332 339 342 344 344 342 333 332 329 328 327 325 324 326 328 331 331 330 329 329 329 330 327 327 329 328 328 329 328
316 312 316 318 318 320 319 322 321 321 322 322 322 320 320 320 321 322 326 330 329 330 332 335 338 343 340 333 331 329 328 326 322 323 327 330 331 330 330 329 329 330 327 327 327 326 326 327 327
320 313 318 318 318 320 317 320 319 321 321 322 322 319 319 319 320 321 328 339 339 336 336 334 336 338 340 335 332 330 329 326 323 321 325 329 331 331 330 329 329 330 328 326 326 325 326 326 326
319 315 317 319 318 318 317 317 318 318 318 318 318 318 318 319 319 320 320 322 341 346 349 348 344 339 338 336 333 331 330 330 328 325 323 327 329 330 330 330 329 330 329 325 326 324 324 325 326
316 314 317 317 317 316 316 317 316 316 316 316 317 317 318 318 319 319 319 320 324 334 341 346 347 347 343 339 334 332 332 331 330 328 324 323 326 328 328 329 329 329 330 326 326 325 324 324 325
315 315 316 318 317 317 316 316 316 315 314 315 316 316 316 317 317 318 318 318 319 324 332 339 343 345 344 343 339 336 330 330 332 330 329 328 326 326 329 329 330 330 330 328 326 325 324 324 323
315 316 316 317 317 316 315 315 315 315 315 315 315 315 316 317 317 317 317 317 317 318 321 323 327 337 338 340 343 342 340 337 333 330 330 329 329 326 325 328 329 330 330 330 327 326 324 324 324
313 314 315 315 315 315 315 314 314 314 315 315 314 315 315 316 315 315 315 315 315 316 317 318 320 325 331 337 340 340 341 341 339 339 335 330 329 330 328 326 328 329 331 330 330 327 326 325 324
313 313 314 314 314 314 314 313 315 314 315 314 315 314 314 313 313 313 314 314 314 313 313 313 315 316 318 323 329 333 338 338 338 339 339 336 330 328 330 329 328 328 332 333 333 333 328 326 325
312 312 310 312 314 313 313 312 310 315 314 313 313 312 312 311 312 312 312 312 312 312 310 310 309 309 312 315 317 321 328 335 336 337 338 339 338 337 333 331 331 328 329 337 335 335 335 328 327
311 310 310 311 311 312 312 312 312 313 313 312 312 310 311 310 310 310 311 311 311 311 310 307 306 306 306 307 311 313 318 323 327 333 336 335 337 340 339 336 332 334 335 337 337 336 337 331 330
309 309 310 310 310 309 310 309 310 310 310 311 310 309 308 307 306 307 307 308 309 308 306 306 306 306 306 306 306 307 308 315 325 329 332 335 335 336 338 338 337 336 335 338 340 338 337 335 333
311 310 310 311 311 308 309 310 308 310 311 310 309 308 307 306 305 305 305 305 305 305 305 305 305 305 305 305 306 306 306 306 311 322 323 331 334 335 336 336 336 336 336 336 338 338 336 337 335
309 309 308 308 309 308 307 308 308 309 310 308 308 307 307 306 305 304 304 304 304 304 303 303 303 303 303 304 304 305 305 306 307 307 313 319 327 330 333 332 333 336 336 334 334 334 335 335 337
309 309 308 307 308 307 305 306 304 307 309 308 307 307 306 305 305 305 304 303 303 302 302 302 302 302 302 302 303 303 304 305 305 306 307 307 312 322 325 326 328 334 336 335 333 334 334 333 336
308 308 308 307 306 306 305 304 305 309 308 307 307 306 305 305 305 304 304 303 303 302 301 301 301 301 301 301 302 302 303 304 304 305 306 307 308 308 314 318 323 328 331 334 334 333 332 333 332
307 307 307 306 305 305 303 302 306 309 308 307 306 305 305 305 304 304 303 303 302 302 301 300 300 300 300 300 301 301 302 302 303 303 304 305 306 308 309 310 313 318 324 331 333 334 333 331 332
306 306 305 305 303 302 303 301 301 308 307 306 305 305 305 305 304 303 302 302 302 302 301 299 299 299 299 299 299 300 301 301 301 302 303 304 305 306 309 310 310 312 316 324 331 333 330 333 330
304 304 304 302 301 301 302 301 302 309 308 306 305 305 305 304 304 303 303 303 302 301 300 298 298 297 297 298 298 299 300 300 300 299 300 302 303 304 306 309 310 312 313 316 326 331 331 329 330
304 303 302 304 303 303 305 303 308 308 307 306 304 304 304 304 303 303 303 302 301 300 299 298 297 297 297 297 297 298 300 300 298 297 297 298 299 301 304 306 309 311 313 313 318 330 330 329 328
303 303 304 307 307 306 306 311 310 307 306 306 306 304 304 304 303 303 302 301 299 298 297 296 295 295 295 295 295 297 298 298 297 295 295 296 297 300 302 305 307 310 312 314 313 324 330 331 329
304 304 304 305 304 303 307 310 309 307 306 305 304 304 303 303 302 302 300 299 297 296 295 294 294 293 293 293 293 295 296 296 294 294 295 294 295 298 300 303 305 309 313 316 318 318 327 330 328
304 303 304 303 305 306 304 310 309 309 307 305 303 303 302 302 301 300 298 297 296 295 294 293 293 292 292 292 291 291 293 293 292 292 293 293 294 297 299 301 303 306 312 316 320 321 325 326 327
302 302 303 304 305 308 307 307 307 309 307 305 304 303 302 301 300 299 297 297 296 294 293 292 291 291 291 291 290 290 290 291 291 290 291 292 293 295 298 299 300 302 308 315 318 322 322 323 324
303 304 303 300 302 302 302 304 306 304 304 304 303 302 300 299 298 298 296 295 294 294 293 292 291 291 291 290 290 289 289 289 290 290 290 291 292 294 296 296 297 300 304 304 307 319 319 325 324
Wind_Speed
7 5 8 4 4 5 3 5 2 3 2 4 14 21 13 7 5 4 5 11 6 11 10 14 12 10 9 9 8 7 7 8 8 9 9 6 5 3 4 5 8 8 8 7 8 7 7 7 6
5 4 4 2 4 4 5 5 1 1 2 7 19 18 9 5 10 6 6 8 4 3 4 10 12 10 10 9 9 8 7 8 9 9 9 7 6 4 4 5 6 7 7 7 7 6 6 5 6
4 5 3 4 3 2 1 4 5 2 13 7 6 15 7 5 10 5 6 4 3 4 2 8 11 11 11 10 9 8 8 8 9 10 10 9 7 6 5 6 6 6 6 6 6 6 5 5 7
7 2 3 4 2 7 6 6 4 1 14 17 16 8 15 9 7 7 5 3 4 3 6 4 9 10 11 9 8 8 8 9 10 11 10 10 9 7 7 7 7 7 6 6 6 5 5 6 7
7 2 4 3 5 6 5 7 3 4 7 13 19 6 11 16 15 12 9 1 4 2 3 2 4 8 9 9 8 8 8 10 11 12 11 11 10 9 9 8 8 6 6 6 6 6 6 7 7
2 2 4 1 4 7 4 21 25 17 17 10 20 13 10 14 12 11 8 10 7 9 6 5 6 7 10 11 10 10 9 9 11 13 13 12 11 10 10 9 8 7 6 6 6 6 7 8 8
3 3 3 1 3 6 6 10 11 12 15 13 7 5 10 14 15 11 10 8 8 11 10 9 10 11 11 13 12 11 10 10 12 14 15 15 14 13 12 11 10 9 8 7 7 7 7 8 9
1 4 1 0 3 1 10 9 14 12 5 5 11 4 3 10 7 13 15 4 4 10 10 11 10 11 13 14 16 15 14 13 13 15 16 16 16 15 14 13 12 11 10 9 8 7 7 7 9
3 3 1 3 4 2 11 8 16 8 17 24 12 18 14 12 7 6 14 13 3 2 4 7 11 14 13 13 18 18 17 16 15 16 17 18 18 18 17 16 15 14 13 12 11 9 8 8 9
2 3 6 6 2 3 4 6 6 7 14 9 17 15 13 14 13 12 20 23 20 10 5 9 8 9 15 13 14 19 18 18 18 18 19 21 20 20 19 19 19 18 17 16 14 12 11 10 10
2 4 4 3 3 6 5 1 2 2 4 5 11 13 16 19 23 24 26 26 26 24 14 0 8 9 10 11 14 15 20 21 21 21 21 21 22 22 23 23 23 22 21 20 19 17 14 12 12
4 13 11 7 2 3 3 4 2 3 3 12 10 15 23 23 26 25 25 24 20 20 21 22 18 4 7 15 15 17 16 18 22 24 24 24 25 27 27 27 26 26 25 23 22 21 18 17 15
4 5 12 9 4 2 3 1 4 3 16 10 12 21 25 24 24 23 23 21 22 21 20 20 17 15 13 11 17 19 19 21 21 22 22 27 28 29 29 30 29 29 28 27 26 24 23 21 20
10 8 7 8 11 7 5 0 5 12 13 11 22 26 25 25 23 20 19 19 19 23 26 24 20 20 17 15 12 15 17 19 20 25 25 25 26 30 32 33 33 32 30 29 28 27 27 26 25
9 6 8 7 8 3 2 5 4 17 12 28 29 26 26 25 22 24 22 19 21 25 29 30 29 26 24 22 18 15 14 19 23 23 25 27 27 25 30 34 36 35 34 31 29 29 28 30 28
3 3 3 6 7 6 6 3 3 5 11 28 29 26 25 26 24 22 20 19 21 24 30 31 30 29 25 22 24 21 15 14 15 25 28 26 30 33 28 29 37 39 37 35 33 32 30 32 31
3 3 4 7 2 5 3 5 5 4 13 21 24 23 23 23 23 22 21 20 20 22 24 26 29 31 32 30 24 24 24 20 16 16 23 27 28 32 33 34 34 38 42 38 39 41 38 34 34
3 3 1 2 2 4 3 4 2 13 30 23 21 22 23 24 23 21 21 21 20 19 20 21 25 28 30 31 33 28 25 23 23 22 21 27 31 33 36 31 36 40 42 45 42 44 44 39 37
5 1 1 3 2 5 3 3 3 14 26 21 21 21 21 21 19 19 20 20 20 21 22 25 27 29 31 32 35 35 35 31 28 27 28 25 27 32 35 35 35 41 47 49 48 50 48 47 43
1 1 5 4 4 3 2 2 9 7 10 16 21 20 19 18 18 18 20 22 25 27 29 29 30 31 32 32 32 35 36 34 32 32 32 33 32 31 33 36 40 42 42 49 51 53 55 54 51
4 3 2 2 4 2 2 3 5 7 17 15 16 17 18 19 18 18 21 25 26 28 30 31 33 33 33 34 33 33 35 37 36 33 34 33 35 35 38 37 36 40 40 46 51 55 56 57 59
2 3 3 2 4 4 4 4 1 9 9 10 12 14 17 18 17 19 23 26 29 30 30 30 32 35 36 37 39 37 36 38 38 41 38 39 37 39 39 40 41 39 36 40 53 54 52 57 55
3 2 2 1 2 2 4 1 4 8 6 5 8 13 14 14 17 20 22 25 28 30 31 34 35 34 32 32 34 38 38 38 39 38 41 40 41 38 37 38 39 40 41 38 41 53 51 54 58
5 3 1 4 3 3 10 8 3 3 7 6 10 10 10 11 15 17 18 22 25 28 32 36 38 38 37 35 32 32 35 38 40 42 41 41 41 42 38 37 40 41 42 42 38 40 48 54 50
4 5 3 3 0 6 3 5 1 3 7 11 10 8 9 9 10 9 13 18 22 26 31 37 39 37 36 34 32 32 32 35 37 38 39 39 40 40 41 39 40 42 42 43 42 37 44 48 45
5 7 5 6 3 4 3 5 4 4 14 14 10 7 7 6 6 9 10 14 18 24 31 35 35 34 33 32 31 30 31 34 35 37 36 35 36 38 38 38 37 38 43 43 43 38 38 41 40
4 4 5 4 2 1 3 3 3 4 5 11 10 8 6 5 7 5 10 13 19 26 30 33 33 32 33 31 30 29 30 32 33 36 35 34 33 33 33 32 32 32 35 40 36 39 36 39 37
5 4 3 2 3 4 4 5 4 12 9 6 8 9 6 6 6 7 11 16 21 25 29 30 31 32 31 29 29 30 30 30 29 33 32 31 30 29 29 25 25 28 31 29 29 33 38 37 36
2 1 1 3 4 5 2 4 4 13 11 9 10 9 6 6 6 8 13 18 23 24 27 29 29 32 29 29 32 31 30 30 28 30 30 30 29 27 24 18 21 25 20 18 23 25 30 37 34
6 7 7 4 5 2 4 5 2 7 14 15 11 9 7 5 6 9 12 15 20 25 29 30 31 32 30 31 35 32 28 30 29 28 30 28 27 25 22 18 19 23 19 15 10 20 16 27 28
Wind_Direction
358 323 325 2 50 64 274 270 269 300 346 9 82 91 101 77 85 147 341 10 56 165 177 174 173 170 167 162 155 156 159 164 169 172 177 179 168 147 143 133 129 126 120 112 108 111 114 110 102
20 352 347 34 80 48 301 270 103 212 193 113 103 98 56 66 104 77 23 4 87 94 175 193 178 175 174 169 160 162 172 172 173 180 184 183 181 175 166 149 138 132 125 118 113 116 113 111 112
0 326 353 85 85 155 191 261 213 30 58 66 94 76 63 106 68 66 39 16 79 89 36 209 188 183 182 176 168 171 183 184 184 187 191 188 188 188 183 170 159 149 139 133 127 129 126 127 127
353 11 74 76 294 259 205 232 221 273 55 73 110 61 64 80 66 56 44 29 27 71 47 187 196 199 195 186 179 184 191 198 194 196 197 196 197 196 196 187 176 167 157 153 147 146 141 140 140
353 18 59 50 296 277 14 343 85 56 66 71 95 98 97 68 65 55 43 3 12 64 42 116 237 228 216 203 196 201 204 208 203 204 204 205 206 206 204 199 191 185 175 170 162 157 151 151 149
16 52 59 56 318 295 357 55 62 57 56 78 87 95 73 71 63 52 35 36 339 329 328 303 281 270 248 227 215 210 213 221 216 210 209 211 215 218 219 213 205 197 193 190 180 173 166 162 162
107 76 198 253 259 21 339 47 63 55 51 34 65 101 67 63 55 60 55 24 7 352 345 342 316 289 274 249 230 222 221 226 230 220 215 215 218 221 223 222 217 212 210 206 196 189 182 171 172
337 90 301 330 195 117 351 29 32 45 36 53 25 67 67 62 61 60 57 36 348 333 330 338 342 333 296 267 243 231 225 229 234 231 221 219 223 226 227 226 225 224 224 219 210 205 196 183 179
239 66 266 262 77 293 18 35 13 31 51 68 79 77 79 78 98 75 68 73 140 264 282 287 318 333 334 293 250 241 236 229 232 237 233 225 224 227 229 231 230 228 228 228 223 217 210 198 188
131 144 216 202 136 136 61 59 11 20 33 55 70 67 68 73 93 89 69 72 65 66 275 277 275 310 317 329 290 256 248 246 239 235 237 238 232 230 231 232 233 231 230 229 230 227 220 210 198
253 218 232 249 117 139 130 81 30 25 58 99 92 80 79 81 77 79 71 69 62 58 66 36 263 252 260 263 273 293 273 261 256 250 241 241 242 237 234 233 233 232 233 231 229 229 229 223 210
313 284 270 244 212 165 172 161 203 218 180 118 95 87 94 86 77 71 65 59 56 51 48 44 42 31 292 275 260 263 275 300 272 261 255 244 242 242 240 237 237 236 236 235 235 233 230 227 219
193 340 330 326 325 357 300 305 196 232 143 121 103 105 91 87 77 70 60 50 37 33 31 24 19 12 2 296 285 272 279 275 284 277 268 257 250 248 247 245 242 242 239 238 238 237 235 231 223
317 315 303 301 297 303 299 211 123 139 143 119 107 99 90 80 70 66 56 42 22 14 11 6 353 351 352 352 324 315 280 276 281 276 278 272 259 254 251 249 247 246 245 245 244 243 242 238 233
313 329 337 282 261 222 209 336 184 157 153 102 104 97 88 75 67 57 47 33 22 11 4 354 349 340 329 326 327 331 322 287 277 279 274 272 270 264 261 253 251 249 248 251 254 248 246 240 236
345 33 352 290 142 191 160 255 61 139 163 104 98 92 85 71 64 57 46 31 17 1 351 352 354 348 344 328 313 314 313 300 285 268 263 266 270 264 261 260 254 253 251 249 249 251 248 241 233
358 233 203 305 51 114 123 209 211 26 129 103 102 98 88 77 65 58 49 33 12 357 347 343 347 350 347 347 340 313 308 300 288 277 263 254 258 268 263 256 255 258 255 254 249 253 247 243 236
223 235 323 224 193 61 142 225 41 106 125 107 101 94 85 74 61 52 46 39 29 18 8 2 357 352 350 344 339 339 321 303 287 279 282 267 253 249 257 263 260 257 257 254 253 249 253 246 244
249 241 257 275 266 164 204 214 270 115 112 117 113 101 92 77 65 51 44 33 22 15 8 3 359 357 350 346 342 338 338 330 316 295 283 282 277 265 256 256 258 261 258 252 251 253 251 249 246
220 271 290 287 52 109 144 237 268 119 104 116 116 107 100 87 68 49 36 26 17 9 5 359 355 352 350 347 344 340 336 331 325 316 301 289 282 276 271 271 266 259 259 259 251 249 252 251 245
230 187 226 222 333 64 171 190 159 75 95 90 91 94 82 74 71 46 29 22 15 7 1 355 353 348 345 342 338 335 333 332 326 318 313 302 294 286 278 278 276 270 269 256 259 251 248 249 249
243 135 116 77 67 240 52 283 241 141 107 90 88 77 70 65 50 34 22 13 5 1 356 350 348 348 344 342 337 338 339 336 334 326 317 310 304 296 292 285 282 281 276 264 256 257 253 250 244
181 105 106 170 131 69 200 251 287 125 122 133 110 80 69 50 30 21 11 5 358 351 348 346 344 344 342 340 335 333 334 333 331 328 319 311 306 302 299 296 290 283 273 271 263 256 252 252 250
153 108 21 46 110 278 208 175 217 249 166 139 97 88 63 43 28 11 4 354 348 346 347 346 344 343 343 341 337 332 329 330 329 329 324 316 311 306 302 304 297 290 282 269 271 262 250 255 259
103 75 338 322 269 230 186 162 303 77 122 135 138 98 77 48 22 6 354 346 344 342 342 341 341 340 339 337 335 331 327 327 327 327 324 319 318 311 306 309 304 295 289 276 264 264 256 251 254
181 157 165 232 217 273 334 170 221 154 131 145 135 111 98 62 24 358 351 349 345 343 342 344 346 345 345 342 339 335 332 329 326 325 322 318 313 310 302 305 306 301 292 286 267 261 259 259 252
205 164 172 121 301 333 164 91 341 180 168 164 155 147 118 71 32 21 354 353 349 345 346 348 347 349 349 345 339 336 333 329 325 326 322 318 316 311 306 303 320 307 298 280 275 255 253 251 253
135 160 73 18 215 235 269 181 216 195 193 165 171 147 107 68 43 15 2 356 351 350 349 348 350 350 349 347 346 342 339 331 330 329 326 322 320 316 311 307 327 324 288 280 274 252 248 245 249
124 144 148 143 155 201 240 253 217 186 177 170 153 131 102 57 24 1 356 346 345 346 348 350 352 349 348 350 350 347 344 342 336 336 335 329 325 325 320 320 338 329 317 278 276 262 251 242 242
175 182 160 138 236 221 149 257 94 130 151 146 130 120 105 81 27 6 353 349 344 346 345 348 349 347 346 350 349 347 346 347 344 339 340 343 336 334 332 338 341 336 340 357 326 231 216 230 231